Back to catalog

FENGYUN 1C DEB

AlivePO
NORAD 31287·DEBRIS·🇨🇳 China

Launched May 10, 1999 from Taiyuan Satellite Launch Center

Loading…

Next Passes (next 24 hours)

TLE

FreshSource: Space-Track

Epoch: Sep 12, 2026, 04:12 UTC

1 31287U 99025BNV 26255.17555808  .00001885  00000-0  75046-3 0  9992
2 31287  99.3909 337.2126 0026023 359.9555   0.1618 14.29791702  5878

Track FENGYUN 1C DEB in real time with AllMySat

Download on the App Store